Richmond, Missouri
Current Conditions -  °F | °C
As of 6:35 AM on Friday 24 Oct 2014 (Local Time) from KGPH Reporting Station
Moderate Fog Moderate Fog  
Wind Chill: 55°   Ceiling: 100
Heat Index: 55°   Visibility: 0.5mi
Dew Point: 55°   Wind: 3mph
Humidity: 100%   Direction: 120°ESE
Pressure: 30.06"   Gusts: NA
Location:  39.28°N, 93.98°W
Report Text: KGPH 241135Z AUTO 12003KT 1/2SM FG OVC001 13/13 A3006 RMK AO2
Loading
Personal Weather Stations






























Interactive Weather Map
Tropical Storm Tracking
New forecast layout! Learn more

10-Day Weather Forecast

Advertisements
Track Severe Weather on mobile